Location: Dos Palmas
(32.4468°N, 116.8732°W)
Time: 05:16:07
(UTC+00:00)

Cosmos 2333 Rocket - Pass Details

Date: 20 June 2021
Orbit: 841 x 861 km, 70.8° (Epoch: 29 July)

Event Time Altitude Azimuth Distance (km) Brightness Sun altitude
Exits shadow 04:58:00 16° 198° (SSW) 2,071 3.9 -20.8°
Maximum altitude 05:02:37 87° 109° (ESE) 863 2.1 -21.4°
Drops below altitude 10° 05:08:22 10° 21° (NNE) 2,490 5.0 -22.2°
Sets 05:10:49 0° 21° (NNE) 3,426 5.8 -22.5°
